Fallon NAS, NV

12:43 PM PDT on May 23, 2018 (GMT -0700)
Fallon Naval Air Station

Weather History for KNFL - May, 2013

Change the Weather History Date:

Friday, May 10, 2013

  Actual Average Record
Temperature  
Mean Temperature 66 °F -  
Max Temperature 86 °F 71 °F 89 °F (1960)
Min Temperature 48 °F 40 °F 24 °F (1953)
Cooling Degree Days 1    
Growing Degree Days 16 (Base 50)    
Moisture  
Dew Point 35 °F    
Average Humidity 36    
Maximum Humidity 66    
Minimum Humidity 12    
Precipitation  
Precipitation 0.00 in - - ()
Sea Level Pressure  
Sea Level Pressure 30.10 in    
Wind  
Wind Speed 7 mph (NW)    
Max Wind Speed 13 mph    
Max Gust Speed 18 mph    
Visibility 10 miles    
Events      
Averages and records for this station are not official NWS values.
T = Trace of Precipitation, MM = Missing Value Source: NWS Daily Summary

Daily Weather History Graph

Daily Weather History Graph

Search for Another Location

Airport or City:

Astronomy

May. 10, 2013 Rise Set
Actual Time 5:45 AM PDT 7:57 PM PDT
Civil Twilight 5:15 AM PDT 8:27 PM PDT
Nautical Twilight 4:38 AM PDT 9:04 PM PDT
Astronomical Twilight 3:58 AM PDT 9:44 PM PDT
Moon 6:13 AM PDT (5/10) 8:51 PM PDT (5/10)
Length of Visible Light 15h 11m
Length of Day
14h 11m
New Moon, 1% of the Moon is Illuminated
May 10
New Moon
May 17
First Quarter
May 24
Full
May 31
Last Quarter
Jun 8
New

Hourly Weather History & Observations

Time (PDT) Temp. Dew Point Humidity Pressure Visibility Wind Dir Wind Speed Gust Speed Precip Events Conditions
12:56 AM 53.1 °F 42.1 °F 66% 30.07 in 10.0 mi Variable 6.9 mph - N/A   Clear
1:56 AM 52.0 °F 37.9 °F 59% 30.07 in 10.0 mi SE 9.2 mph - N/A   Clear
2:56 AM 51.1 °F 39.0 °F 63% 30.07 in 10.0 mi South 6.9 mph - N/A   Clear
3:56 AM 50.0 °F 39.0 °F 66% 30.08 in 10.0 mi SSE 6.9 mph - N/A   Clear
4:56 AM 50.0 °F 39.0 °F 66% 30.08 in 10.0 mi South 6.9 mph - N/A   Clear
5:56 AM 48.9 °F 37.9 °F 66% 30.10 in 10.0 mi SSE 8.1 mph - N/A   Clear
6:19 AM 51.8 °F 39.2 °F 62% 30.21 in 10.0 mi South 4.6 mph - N/A   Scattered Clouds
6:56 AM 54.0 °F 39.9 °F 59% 30.11 in 10.0 mi South 3.5 mph - N/A   Scattered Clouds
7:56 AM 60.1 °F 43.0 °F 53% 30.13 in 10.0 mi West 3.5 mph - N/A   Scattered Clouds
8:56 AM 64.0 °F 44.1 °F 48% 30.13 in 10.0 mi Calm Calm - N/A   Partly Cloudy
9:56 AM 71.1 °F 37.9 °F 30% 30.14 in 10.0 mi North 8.1 mph - N/A   Scattered Clouds
10:56 AM 73.9 °F 37.0 °F 26% 30.13 in 10.0 mi NNW 4.6 mph - N/A   Scattered Clouds
11:56 AM 77.0 °F 35.1 °F 22% 30.12 in 10.0 mi Calm Calm - N/A   Partly Cloudy
12:56 PM 82.0 °F 33.1 °F 17% 30.11 in 10.0 mi NNW 9.2 mph - N/A   Scattered Clouds
1:56 PM 84.0 °F 28.9 °F 14% 30.10 in 10.0 mi NNE 12.7 mph 18.4 mph N/A   Scattered Clouds
2:56 PM 84.0 °F 30.0 °F 14% 30.08 in 10.0 mi North 11.5 mph 16.1 mph N/A   Scattered Clouds
3:56 PM 84.9 °F 28.0 °F 13% 30.07 in 10.0 mi NNE 8.1 mph - N/A   Scattered Clouds
4:56 PM 84.9 °F 27.0 °F 12% 30.05 in 10.0 mi North 6.9 mph - N/A   Scattered Clouds
5:56 PM 82.9 °F 26.1 °F 13% 30.04 in 10.0 mi NW 5.8 mph - N/A   Scattered Clouds
6:56 PM 81.0 °F 30.0 °F 16% 30.05 in 10.0 mi West 11.5 mph - N/A   Scattered Clouds
7:56 PM 78.1 °F 32.0 °F 19% 30.06 in 10.0 mi West 8.1 mph - N/A   Scattered Clouds
8:56 PM 73.0 °F 32.0 °F 22% 30.08 in 10.0 mi West 4.6 mph - N/A   Scattered Clouds
9:56 PM 69.1 °F 32.0 °F 25% 30.09 in 10.0 mi NNW 6.9 mph - N/A   Clear
10:56 PM 63.0 °F 33.1 °F 33% 30.11 in 10.0 mi NNW 8.1 mph - N/A   Clear
11:56 PM 64.0 °F 27.0 °F 25% 30.12 in 10.0 mi Calm Calm - N/A   Clear